Fort Knox, KY

6:36 AM EDT on May 30, 2017 (GMT -0400)
Godman Army Air Field

Weather History for KFTK - February, 2014

Change the Weather History Date:

Saturday, February 15, 2014

  Actual Average Record
Temperature  
Mean Temperature 22 °F -  
Max Temperature 28 °F 45 °F 68 °F (2005)
Min Temperature 16 °F 28 °F 5 °F (2015)
Degree Days  
Heating Degree Days 43    
Moisture  
Dew Point 16 °F    
Average Humidity 78    
Maximum Humidity 86    
Minimum Humidity 62    
Precipitation  
Precipitation 0.00 in - - ()
Sea Level Pressure  
Sea Level Pressure 30.03 in    
Wind  
Wind Speed 11 mph (West)    
Max Wind Speed 16 mph    
Max Gust Speed 23 mph    
Visibility 10 miles    
Events Snow    
Averages and records for this station are not official NWS values.
T = Trace of Precipitation, MM = Missing Value Source: NWS Daily Summary

Daily Weather History Graph

Daily Weather History Graph

Search for Another Location

Airport or City:

Trip Planner

Search our weather history database for the weather conditions in past years. The results will help you decide how hot, cold, wet, or windy it might be!

Date:

Astronomy

Feb. 15, 2014 Rise Set
Actual Time 7:33 AM EST 6:22 PM EST
Civil Twilight 7:06 AM EST 6:49 PM EST
Nautical Twilight 6:36 AM EST 7:20 PM EST
Astronomical Twilight 6:05 AM EST 7:51 PM EST
Moon 7:20 PM EST (2/15) 7:33 AM EST (2/15)
Length of Visible Light 11h 42m
Length of Day
10h 49m
Full, 100% of the Moon is Illuminated
Feb 15
Full
Feb 22
Last Quarter
Mar 1
New
Mar 8
First Quarter
Mar 16
Full

Hourly Weather History & Observations

Time (EST) Temp. Windchill Dew Point Humidity Pressure Visibility Wind Dir Wind Speed Gust Speed Precip Events Conditions
12:43 AM 23.0 °F 9.6 °F 17.6 °F 80% 29.85 in 10.0 mi NW 16.1 mph 23.0 mph N/A Snow Light Snow
12:54 AM 23.0 °F 10.1 °F 17.6 °F 80% 29.86 in 10.0 mi NW 15.0 mph 23.0 mph N/A   Overcast
12:58 AM 23.2 °F 9.8 °F 18.1 °F 81% 29.89 in 10.0 mi NW 16.1 mph 23.0 mph 0.00 in   Overcast
1:23 AM 23.0 °F 11.7 °F 17.6 °F 80% 29.87 in 10.0 mi NW 11.5 mph - N/A   Overcast
1:28 AM 23.0 °F 11.1 °F 17.6 °F 80% 29.87 in 10.0 mi NW 12.7 mph - N/A   Overcast
1:38 AM 23.0 °F 12.4 °F 17.6 °F 80% 29.87 in 10.0 mi NW 10.4 mph - N/A   Overcast
1:40 AM 23.0 °F 12.4 °F 17.6 °F 80% 29.88 in 10.0 mi NW 10.4 mph - N/A Snow Light Snow
1:58 AM 22.3 °F 9.2 °F 18.3 °F 85% 29.92 in 10.0 mi WNW 15.0 mph - 0.00 in Snow Light Snow
2:12 AM 21.2 °F 7.8 °F 17.6 °F 86% 29.90 in 10.0 mi WNW 15.0 mph - N/A   Overcast
2:19 AM 21.2 °F 8.9 °F 17.6 °F 86% 29.90 in 10.0 mi WNW 12.7 mph - N/A Snow Light Snow
2:58 AM 20.1 °F 8.8 °F 16.3 °F 85% 29.96 in 10.0 mi WNW 10.4 mph - 0.00 in Snow Light Snow
3:40 AM 19.4 °F 6.6 °F 15.8 °F 86% 29.94 in 10.0 mi NW 12.7 mph - N/A   Overcast
3:43 AM 19.4 °F 7.9 °F 14.0 °F 80% 29.94 in 10.0 mi NW 10.4 mph - N/A Snow Light Snow
3:58 AM 19.6 °F 8.1 °F 14.9 °F 82% 29.99 in 10.0 mi WNW 10.4 mph - 0.00 in Snow Light Snow
4:10 AM 19.4 °F 9.5 °F 14.0 °F 80% 29.96 in 10.0 mi WNW 8.1 mph - N/A   Overcast
4:14 AM 19.4 °F 8.6 °F 14.0 °F 80% 29.97 in 10.0 mi WNW 9.2 mph - N/A Snow Light Snow
4:19 AM 19.4 °F 6.6 °F 14.0 °F 80% 29.96 in 10.0 mi WNW 12.7 mph 18.4 mph N/A Snow Light Snow
4:24 AM 19.4 °F 8.6 °F 14.0 °F 80% 29.97 in 10.0 mi WNW 9.2 mph 18.4 mph N/A Snow Light Snow
4:44 AM 19.4 °F 6.6 °F 14.0 °F 80% 29.99 in 10.0 mi WNW 12.7 mph - N/A Snow Light Snow
4:58 AM 18.5 °F 4.9 °F 13.8 °F 82% 30.04 in 10.0 mi WNW 13.8 mph - 0.00 in Snow Light Snow
5:08 AM 17.6 °F 5.7 °F 14.0 °F 86% 30.01 in 10.0 mi NW 10.4 mph 18.4 mph N/A Snow Light Snow
5:14 AM 17.6 °F 5.7 °F 12.2 °F 79% 30.02 in 10.0 mi WNW 10.4 mph - N/A   Overcast
5:29 AM 17.6 °F 6.4 °F 12.2 °F 79% 30.03 in 10.0 mi WNW 9.2 mph - N/A   Overcast
5:42 AM 17.6 °F 5.7 °F 12.2 °F 79% 30.03 in 10.0 mi WNW 10.4 mph - N/A Snow Light Snow
5:44 AM 17.6 °F 8.2 °F 12.2 °F 79% 30.03 in 10.0 mi WNW 6.9 mph - N/A   Overcast
5:56 AM 17.6 °F 5.0 °F 12.2 °F 79% 30.04 in 10.0 mi WNW 11.5 mph - N/A Snow Light Snow
5:58 AM 17.6 °F 5.0 °F 12.2 °F 79% 30.08 in 10.0 mi WNW 11.5 mph - 0.00 in Snow Light Snow
6:08 AM 17.6 °F 8.2 °F 12.2 °F 79% 30.04 in 10.0 mi WNW 6.9 mph - N/A   Overcast
6:12 AM 17.6 °F 7.3 °F 12.2 °F 79% 30.04 in 10.0 mi West 8.1 mph - N/A Snow Light Snow
6:47 AM 17.6 °F 7.3 °F 12.2 °F 79% 30.05 in 10.0 mi West 8.1 mph - N/A   Overcast
6:48 AM 17.6 °F 7.3 °F 12.2 °F 79% 30.05 in 10.0 mi West 8.1 mph - N/A Snow Light Snow
6:53 AM 17.6 °F 7.3 °F 12.2 °F 79% 30.06 in 10.0 mi West 8.1 mph - N/A   Overcast
6:58 AM 17.6 °F 9.3 °F 13.1 °F 83% 30.09 in 10.0 mi West 5.8 mph - 0.00 in   Overcast
7:00 AM 17.6 °F 7.3 °F 12.2 °F 79% 30.06 in 10.0 mi West 8.1 mph - N/A Snow Light Snow
7:13 AM 17.6 °F 6.4 °F 12.2 °F 79% 30.06 in 10.0 mi West 9.2 mph - N/A   Overcast
7:28 AM 17.6 °F 10.7 °F 12.2 °F 79% 30.05 in 10.0 mi West 4.6 mph - N/A   Scattered Clouds
7:58 AM 16.0 °F 5.3 °F 12.2 °F 85% 30.11 in 10.0 mi WSW 8.1 mph - 0.00 in   Scattered Clouds
8:58 AM 16.7 °F 6.2 °F 12.2 °F 82% 30.14 in 10.0 mi West 8.1 mph - N/A   Scattered Clouds
9:58 AM 19.2 °F 12.5 °F 12.9 °F 76% 30.16 in 10.0 mi WSW 4.6 mph - N/A   Partly Cloudy
10:58 AM 21.6 °F 14.0 °F 13.6 °F 72% 30.18 in 10.0 mi West 5.8 mph - N/A   Scattered Clouds
11:58 AM 23.2 °F 17.2 °F 15.1 °F 71% 30.18 in 10.0 mi SW 4.6 mph - N/A   Scattered Clouds
12:58 PM 25.3 °F 17.6 °F 16.5 °F 69% 30.18 in 10.0 mi WSW 6.9 mph - N/A   Scattered Clouds
1:58 PM 27.9 °F 19.8 °F 16.5 °F 62% 30.16 in 10.0 mi WSW 8.1 mph - N/A   Scattered Clouds
2:58 PM 28.0 °F 20.8 °F 17.4 °F 64% 30.16 in 10.0 mi SSW 6.9 mph - N/A   Clear
3:58 PM 28.6 °F 20.7 °F 17.8 °F 64% 30.16 in 10.0 mi SSW 8.1 mph - N/A   Partly Cloudy
4:58 PM 28.4 °F 21.2 °F 17.4 °F 63% 30.15 in 10.0 mi SW 6.9 mph - N/A   Partly Cloudy
5:58 PM 28.0 °F 21.7 °F 18.1 °F 66% 30.13 in 10.0 mi South 5.8 mph - N/A   Overcast
6:58 PM 28.0 °F 22.8 °F 19.0 °F 69% 30.13 in 10.0 mi South 4.6 mph - N/A   Overcast
7:58 PM 28.2 °F 20.2 °F 20.1 °F 72% 30.11 in 10.0 mi South 8.1 mph - N/A   Mostly Cloudy
8:27 PM 28.4 °F 19.1 °F 19.4 °F 69% 30.05 in 10.0 mi SSE 10.4 mph - N/A Snow Light Snow
8:55 PM 28.4 °F 18.5 °F 20.3 °F 72% 30.12 in 10.0 mi SSW 11.5 mph - 0.00 in Snow Light Snow
9:55 PM 26.6 °F 22.6 °F 21.2 °F 80% 30.11 in 10.0 mi South 3.5 mph - 0.00 in   Overcast
9:57 PM 27.5 °F 23.6 °F 21.2 °F 77% 30.11 in 10.0 mi South 3.5 mph - 0.00 in   Overcast
10:14 PM 26.6 °F 22.6 °F 21.2 °F 80% 30.06 in 10.0 mi SSE 3.5 mph - N/A   Mostly Cloudy
10:58 PM 27.5 °F 21.1 °F 21.6 °F 78% 30.09 in 10.0 mi South 5.8 mph - N/A   Mostly Cloudy
11:17 PM 28.4 °F 22.2 °F 21.2 °F 74% 30.05 in 10.0 mi South 5.8 mph - N/A Snow Light Snow
11:22 PM 28.4 °F 22.2 °F 21.2 °F 74% 30.04 in 10.0 mi SSE 5.8 mph - N/A Snow Light Snow
11:27 PM 28.4 °F 20.4 °F 21.2 °F 74% 30.04 in 10.0 mi SSE 8.1 mph - N/A Snow Light Snow
11:31 PM 28.4 °F 20.4 °F 21.2 °F 74% 30.04 in 10.0 mi SSE 8.1 mph - N/A   Scattered Clouds
11:58 PM 28.0 °F 20.0 °F 21.4 °F 76% 30.05 in 10.0 mi SSE 8.1 mph - 0.00 in   Scattered Clouds